Location: Houston
(29.7631°N, 95.3631°W)
Time: 13:58:31
(UTC-06:00)

Envisat - Pass Details

Date: 01 November 2019
Orbit: 764 x 766 km, 98.1° (Epoch: 14 November)

Event Time Altitude Azimuth Distance (km) Brightness Sun altitude
Rises 19:59:47 0° 182° (S) 3,216 6.3 -18.9°
Reaches altitude 10° 20:02:10 10° 189° (S) 2,293 5.6 -19.4°
Maximum altitude 20:06:58 44° 261° (W) 1,048 4.2 -20.4°
Drops below altitude 10° 20:11:49 10° 333° (NNW) 2,304 5.7 -21.5°
Sets 20:14:14 0° 340° (NNW) 3,233 6.4 -22.0°
